Terminal Aerodrome Forecast
Issued by NWS Huntsville, AL

Home | Current Version | Previous Version | Text Only | Print | Product List | Glossary On
Versions: 1 2 3 4 5 6 7 8 9 10 11 12 13 14 15 16 17 18 19 20 21 22 23 24 25 26 27 28 29 30 31 32
000
FTUS44 KHUN 022109 AAA
TAFMSL
TAF AMD
KMSL 022109Z 0221/0318 22007KT P6SM TS FEW035CB SCT060 BKN110
      TEMPO 0221/0222 3SM TSRA BR BKN035CB
     FM030200 VRB02KT P6SM SCT040 BKN250
     FM031500 VRB04KT P6SM FEW050 SCT250=

USA.gov is the U.S. government's official web portal to all federal, state and local government web resources and services.